Regional Weather Roundup
Issued by NWS

Home | Current Version | Previous Version | Graphics & Text | Print | Product List | Glossary On
Versions: 1 2 3 4 5 6 7 8 9 10 11 12 13 14 15 16 17 18 19 20 21 22 23 24 25 26 27 28 29 30 31 32 33 34 35 36 37 38 39 40 41 42 43 44 45 46 47 48 49 50
000
ASUS43 KFSD 301202
RWRSD

WEATHER ROUNDUP FOR SOUTH DAKOTA
NATIONAL WEATHER SERVICE SIOUX FALLS SD
700 AM CDT SAT JUL 30 2016

NOTE: "FAIR" INDICATES FEW OR NO CLOUDS BELOW 12,000 FEET WITH NO
SIGNIFICANT WEATHER AND/OR OBSTRUCTIONS TO VISIBILITY.


SDZ001>005-009-010-012>017-301300-
NORTHWEST AND NORTH CENTRAL SOUTH DAKOTA

CITY           SKY/WX    TMP DP  RH WIND       PRES   REMARKS
BUFFALO          N/A     60  56  86 SE6       29.87F
FAITH            N/A     60  58  92 S13       29.92S
MOBRIDGE       CLEAR     66  57  72 S13       29.91F
$$

SDZ012>016-024>037-041>051-057-063-072>074-301300-
SOUTHWEST AND SOUTH CENTRAL SOUTH DAKOTA

CITY           SKY/WX    TMP DP  RH WIND       PRES   REMARKS
RAPID CTY ARPT CLEAR     56  53  90 E3        29.94F
PIERRE         CLEAR     63  58  83 SE9       29.93S
CUSTER         CLEAR     56  51  84 NW5       30.08F
ELLSWORTH AFB  CLEAR     62  56  82 W2        29.94F
PHILIP         CLEAR     62  61  96 SE3       29.92F
PINE RIDGE     CLEAR     53  53 100 CALM      29.98F
WINNER         LGT RAIN  66  62  87 S7        29.98S
$$

SDZ004>011-016>023-039-040-301300-
NORTHEAST SOUTH DAKOTA

CITY           SKY/WX    TMP DP  RH WIND       PRES   REMARKS
ABERDEEN       PTCLDY    59  55  87 SE7       29.98S
WATERTOWN      CLEAR     60  55  83 CALM      30.02S
BROOKINGS      CLEAR     57  55  93 SE3       30.03S
SISSETON         N/A     64  59  83 SE6       29.99S
$$

SDZ017-020-022-023-036>040-048>070-301300-
SOUTHEAST SOUTH DAKOTA

CITY           SKY/WX    TMP DP  RH WIND       PRES   REMARKS
SIOUX FALLS    PTCLDY    56  53  90 CALM      30.03S
HURON          CLEAR     60  54  80 SE9       29.99S
CHAMBERLAIN    CLEAR     60  60  97 SE7       29.99S
MITCHELL       CLEAR     60  57  89 S8        30.02R
YANKTON        CLEAR     59  55  88 CALM      30.02R
$$

ABBREVIATIONS USED IN REMARKS
   TC - TEMPERATURE IN CELSIUS
  WCI - WIND CHILL INDEX
   HX - HEAT INDEX
  VSB - VISIBILITY





USA.gov is the U.S. government's official web portal to all federal, state and local government web resources and services.